Theta_e
310 310 310 310 310 310 311 310 310 310 310 310 309 309 307 306 307 307 306 307 306 307 309 301 302 307 303 300 301 302 301 300 301 301 301 301 301 301 303 302 302 303 302 304 305 302 303 305 303 302 303 300 297 296 296 296 296 298 300 299 296 297 300 301 303 301 300 300 298 294 295 298 298 296 293 295 295 295 297 297 296 296 296 296 295 295 297
310 310 310 309 309 309 309 309 309 308 308 309 308 308 306 305 305 305 307 308 306 310 311 307 307 306 301 300 302 301 301 301 303 303 302 302 302 303 304 301 300 301 300 303 305 302 302 302 300 301 303 300 296 295 297 297 296 298 299 298 296 298 301 301 302 301 299 299 299 298 298 299 298 295 292 293 293 292 294 294 294 295 295 294 293 294 296
309 309 309 308 308 309 308 309 309 308 309 309 308 308 306 306 306 304 306 307 306 307 306 306 310 310 307 306 304 303 303 302 302 303 301 301 300 302 303 300 300 301 299 303 306 303 301 301 301 301 301 300 296 295 297 296 296 297 296 296 297 298 300 301 301 299 298 299 299 299 299 298 296 294 292 292 293 293 294 293 293 294 294 292 293 294 294
309 309 308 308 308 309 309 309 308 309 310 309 309 308 306 307 309 306 306 306 304 303 301 302 309 311 313 311 303 302 305 302 300 302 302 301 300 300 301 299 301 302 301 305 310 305 300 300 302 304 304 302 296 294 297 296 295 296 296 295 298 299 300 302 302 300 299 300 300 298 299 298 297 296 292 292 293 292 292 292 292 293 292 292 293 293 292
308 308 308 308 308 308 309 308 309 309 309 309 309 308 307 309 309 307 307 305 304 305 303 301 303 304 309 309 302 302 306 302 300 302 301 301 300 300 300 298 301 305 305 306 307 305 301 299 300 302 302 300 296 293 296 296 296 297 295 295 297 300 301 301 301 302 301 301 299 297 297 297 297 295 292 291 292 291 291 292 291 292 291 292 292 291 291
308 308 308 308 309 309 309 309 309 309 309 309 309 308 308 309 306 303 305 305 305 308 305 301 300 300 304 304 301 305 310 306 304 303 301 300 300 300 303 301 301 303 302 302 303 303 304 302 301 301 300 300 300 298 296 295 296 296 295 295 295 298 301 298 297 301 301 298 298 296 296 296 294 292 291 291 291 291 291 291 291 291 291 291 291 290 289
309 309 309 309 309 309 309 309 309 309 309 309 309 308 306 306 305 301 303 304 302 302 301 299 300 300 303 305 304 306 310 307 303 301 302 304 301 300 303 303 302 301 300 301 302 302 303 303 302 302 301 300 302 302 298 296 296 295 296 295 292 296 304 299 295 298 298 297 298 296 296 297 293 291 291 291 291 291 291 290 290 290 290 290 290 289 288
309 309 309 309 309 309 309 309 309 309 309 308 309 309 306 306 306 303 303 302 299 300 300 300 305 305 304 307 304 303 307 306 301 298 302 305 303 300 302 303 301 299 300 302 302 300 299 300 300 300 300 300 301 301 298 298 297 296 297 297 293 296 302 299 296 298 298 298 298 296 297 297 294 291 290 290 291 290 290 290 290 289 289 289 288 287 287
309 309 309 309 309 309 309 309 309 309 309 309 308 309 307 306 306 304 306 303 298 300 299 298 309 314 307 305 304 303 305 304 301 300 300 302 303 301 300 302 300 298 300 303 302 299 297 299 299 298 299 299 299 298 296 296 299 300 299 298 297 299 300 299 299 299 298 297 297 295 295 295 294 293 291 290 291 290 289 290 289 288 288 287 286 286 286
309 309 309 309 309 309 309 309 309 308 309 309 309 308 307 307 306 305 308 305 298 298 297 299 309 310 302 301 302 302 302 300 299 302 301 299 301 301 299 299 302 304 303 301 299 298 297 298 298 297 297 297 296 296 295 295 297 300 298 297 296 296 298 300 299 298 298 297 295 295 295 294 294 294 291 290 290 289 289 289 288 288 287 286 285 285 285
309 309 309 309 309 309 308 309 309 308 309 309 309 309 307 307 307 305 307 308 300 295 299 307 310 303 298 299 300 299 300 299 299 301 301 300 300 301 300 299 302 307 304 299 298 299 298 297 297 296 296 296 295 295 295 294 294 295 297 297 295 293 297 299 296 297 300 297 294 295 294 294 293 292 291 290 290 289 288 288 287 287 286 285 285 285 285
308 308 308 308 309 309 308 309 308 308 309 308 308 309 307 307 308 306 307 310 303 297 301 307 303 298 299 300 300 300 299 299 300 300 301 301 299 301 301 299 301 304 302 298 299 299 298 297 297 296 295 293 292 293 293 293 293 292 294 297 298 298 299 297 293 296 299 296 294 294 294 294 293 291 291 291 290 289 288 287 287 286 285 285 285 285 285
308 308 308 308 308 308 308 309 308 308 308 308 308 309 308 307 308 306 306 309 304 298 301 302 297 297 300 298 298 299 299 299 300 299 300 301 300 301 301 301 301 301 299 299 299 298 299 299 299 297 295 294 295 296 294 291 291 292 292 294 296 298 298 296 295 296 296 294 294 293 293 293 292 291 291 290 289 288 286 286 286 285 285 285 285 284 285
308 308 309 308 308 309 308 308 308 308 308 308 308 308 308 307 308 307 306 309 304 296 297 301 298 298 299 299 299 300 299 299 300 299 300 300 300 301 301 301 301 300 299 299 298 297 300 306 309 307 305 305 305 301 298 294 291 291 291 292 293 295 297 297 295 294 294 294 293 293 292 293 292 292 292 289 287 287 285 285 285 285 285 285 284 284 284
308 308 309 310 309 310 309 308 309 308 307 308 308 308 308 307 307 307 306 307 305 298 298 301 301 299 299 300 301 300 300 301 301 300 300 300 300 301 301 300 300 299 299 298 297 300 304 306 307 307 305 305 303 299 298 297 293 290 290 291 291 292 294 296 295 294 293 293 292 291 292 292 291 291 290 289 287 286 285 284 284 284 285 285 284 284 284
309 309 310 311 311 311 310 309 309 308 307 307 307 308 308 307 307 308 306 305 307 305 302 300 300 301 301 300 301 301 302 303 302 301 304 304 301 299 300 300 299 299 299 297 297 305 309 304 300 301 300 298 297 298 299 298 296 293 290 291 292 291 291 294 295 294 292 292 291 291 292 292 291 289 289 288 286 285 285 284 283 284 285 284 284 284 284
310 310 311 312 311 311 311 310 309 309 308 307 307 308 308 307 306 307 306 305 307 304 301 301 301 302 301 301 301 301 301 302 301 301 304 303 299 298 300 300 299 298 299 300 302 308 309 303 300 302 301 297 296 298 298 297 297 296 293 293 295 294 291 291 293 292 292 291 291 291 291 292 291 289 288 287 286 285 284 282 283 284 285 284 284 284 284
310 311 312 312 311 311 311 310 310 309 308 307 308 308 308 307 306 306 306 305 305 300 300 301 301 301 301 301 301 300 300 301 300 300 302 300 297 299 300 299 299 299 298 302 307 307 303 299 299 301 300 297 295 297 298 297 297 296 294 295 295 293 290 290 291 291 291 291 291 291 291 291 289 288 287 286 285 284 283 282 283 284 284 284 284 284 284
311 311 311 311 311 311 311 310 310 309 308 307 308 308 308 307 306 306 306 305 305 301 301 302 301 301 301 300 300 299 299 300 299 301 306 304 299 298 299 298 299 299 297 301 305 303 300 298 296 296 299 301 298 297 298 297 296 295 294 294 293 292 291 290 290 290 290 291 290 289 289 289 288 287 287 286 284 283 283 284 284 284 284 284 284 284 283
311 311 311 311 311 311 311 310 310 309 308 307 308 308 308 306 306 306 305 304 304 300 300 300 299 299 299 299 299 299 298 299 299 299 303 304 299 299 303 303 300 299 299 301 302 299 298 300 297 295 298 301 299 297 297 296 294 293 294 294 293 291 291 291 290 290 290 290 289 288 288 288 288 287 285 285 284 284 284 284 284 284 284 284 283 283 283
311 311 311 311 311 310 310 310 310 309 309 307 307 309 308 306 305 305 305 305 304 301 298 298 298 298 298 297 298 298 298 298 299 298 299 300 299 300 304 302 300 299 299 299 300 297 297 299 298 296 297 297 296 296 296 296 294 291 290 292 292 290 290 290 289 289 289 289 288 288 288 288 287 286 284 284 284 284 284 284 284 284 284 283 283 283 282
311 311 311 310 310 310 310 310 309 309 308 307 307 308 307 305 304 304 303 304 303 299 297 297 297 297 298 297 297 298 297 297 298 298 298 299 298 299 300 298 298 298 297 297 298 297 296 298 299 298 298 298 297 296 294 295 295 292 290 291 292 290 290 289 288 289 289 288 288 288 288 287 286 285 285 284 284 284 284 284 283 283 283 283 282 282 282
310 310 310 310 310 310 309 309 309 308 308 307 306 307 307 304 303 303 303 303 302 298 296 298 297 297 298 297 297 298 297 298 298 297 298 298 298 298 298 297 298 298 298 298 298 296 296 298 297 297 297 296 296 297 294 294 294 292 291 291 289 289 289 288 288 288 287 286 287 287 286 286 285 284 285 284 284 284 284 283 283 283 283 282 282 282 282
310 310 310 310 309 309 309 308 308 308 307 306 306 306 306 304 303 303 303 303 302 299 298 298 297 297 297 297 298 298 297 298 298 297 297 298 297 298 298 297 298 298 298 298 297 296 296 296 294 295 297 294 293 297 297 295 293 291 291 290 288 287 288 288 287 287 285 285 286 285 285 285 285 284 285 284 284 284 283 283 283 282 282 282 281 281 281
310 309 309 310 309 309 309 308 307 307 307 305 305 305 304 303 303 303 303 303 302 301 300 298 297 297 297 297 297 298 297 297 298 297 297 297 297 297 297 297 297 297 296 297 297 297 297 295 294 297 298 294 293 295 296 294 291 289 289 289 288 287 288 286 286 286 285 284 285 285 285 285 284 284 284 284 284 284 283 283 282 282 281 281 281 281 281
309 309 309 309 309 309 309 308 307 306 306 305 304 304 304 304 304 303 303 303 302 301 300 298 297 297 297 297 297 297 297 297 297 297 297 297 297 297 296 296 297 296 296 297 297 297 297 295 294 297 297 294 294 295 294 293 291 289 289 289 288 287 286 285 285 285 284 284 285 285 284 284 284 284 284 284 283 283 283 282 282 281 281 281 280 280 280
309 309 309 309 308 309 308 308 306 306 305 305 305 304 304 304 303 303 303 303 303 302 300 298 297 297 297 297 297 297 297 297 297 297 297 297 297 297 297 296 296 296 297 297 297 297 297 296 295 296 295 293 293 291 290 290 290 290 290 288 287 286 286 285 285 284 284 284 285 284 284 284 284 284 284 283 283 283 282 282 281 281 281 280 280 280 279
308 308 308 308 308 308 307 307 306 305 305 305 304 304 304 303 303 303 303 303 304 303 301 298 298 298 298 297 297 296 296 297 297 297 297 296 297 297 297 297 296 297 298 298 297 297 296 297 296 294 293 294 293 290 289 289 291 291 290 288 286 286 286 285 285 285 284 285 285 284 284 284 284 284 283 283 283 282 282 281 281 281 280 280 279 279 279
307 308 308 308 307 307 307 307 306 305 304 304 304 304 304 304 303 303 303 302 303 303 300 299 299 299 298 297 296 296 296 296 297 297 296 296 297 297 297 297 297 297 297 297 297 297 296 295 296 295 294 295 294 290 289 291 292 291 289 287 286 286 285 285 285 285 284 285 284 284 284 284 283 283 283 283 282 282 281 281 280 280 279 279 279 278 278
307 307 308 307 307 307 307 306 306 305 304 304 304 304 305 304 302 302 302 302 302 302 301 300 300 299 298 297 296 296 296 296 296 296 296 296 297 297 297 298 297 297 297 297 297 297 296 295 296 295 294 294 292 289 288 289 289 289 288 286 286 285 285 285 285 284 284 284 284 284 284 283 283 283 283 282 282 281 281 280 280 279 279 278 278 277 277
306 307 307 307 307 307 307 307 306 306 305 304 304 304 304 303 302 302 302 301 302 302 301 300 299 298 297 297 296 296 296 296 296 296 296 296 296 297 297 297 297 297 297 296 296 296 296 296 296 294 293 293 291 288 287 289 289 288 287 286 285 285 285 284 284 284 284 284 283 283 283 283 282 282 282 282 281 281 280 280 279 278 278 277 277 277 276
306 306 306 306 307 306 306 306 306 305 305 305 304 304 303 302 301 301 301 301 301 301 301 300 299 298 298 297 296 296 296 296 296 295 295 296 296 297 297 296 296 297 296 296 296 295 295 295 295 293 293 292 288 284 286 289 288 287 287 286 285 285 284 284 284 284 283 283 283 283 283 282 282 282 282 281 281 280 279 279 278 278 277 277 276 276 276
305 305 305 306 305 305 305 305 304 304 304 304 304 303 301 301 301 301 301 301 300 300 300 299 298 297 296 296 295 296 296 296 296 295 295 295 295 296 296 296 296 296 296 296 296 295 295 295 293 291 291 290 287 286 288 290 287 286 286 286 285 284 284 284 283 283 283 283 283 282 282 282 281 281 281 280 280 279 278 278 278 277 277 276 276 276 276
305 304 304 304 304 305 305 304 303 303 303 303 303 301 301 301 300 300 301 301 300 301 300 298 298 298 297 296 296 296 296 296 295 295 294 295 295 295 296 296 296 295 295 295 295 295 295 294 293 292 291 288 288 289 290 288 287 287 286 285 284 284 284 283 283 283 283 282 282 282 282 281 281 281 281 280 279 279 278 277 277 277 276 276 275 275 275
304 304 304 303 303 304 304 303 302 302 302 302 301 300 300 300 300 300 301 301 300 301 299 298 299 300 300 301 301 298 295 295 295 294 294 294 294 294 295 295 295 294 294 295 295 294 293 292 293 293 290 288 289 291 290 287 286 286 285 284 284 284 283 283 283 283 282 282 282 281 281 281 280 280 280 279 279 278 277 277 277 276 275 275 275 274 274
304 304 303 303 303 303 303 302 302 302 301 301 301 300 300 300 299 300 300 300 301 301 298 296 296 295 296 298 299 296 295 295 295 294 293 294 294 294 294 295 295 294 293 293 293 292 292 292 294 293 290 288 290 290 288 286 286 285 285 284 284 283 283 283 282 282 282 281 281 281 281 280 280 280 280 279 279 278 277 277 276 276 275 275 274 274 274
304 304 303 303 303 303 303 302 302 301 301 301 300 300 300 300 299 300 300 300 300 299 297 296 295 292 293 294 294 294 295 295 294 293 293 294 294 293 293 295 295 293 292 293 293 291 291 292 293 294 292 290 289 288 286 286 286 285 284 284 283 282 283 282 282 282 282 281 281 281 280 280 280 280 279 279 278 277 276 276 275 275 275 274 273 273 273
304 303 303 303 303 303 303 302 302 301 301 300 300 301 300 300 300 299 299 298 299 297 296 295 294 292 293 293 293 294 295 293 292 293 293 293 293 293 293 294 293 292 293 294 292 290 291 291 288 289 291 289 287 287 286 286 285 284 283 283 282 282 282 282 281 282 282 281 281 280 280 279 279 279 278 278 277 277 276 275 275 275 274 273 273 273 272
304 303 303 303 303 303 303 302 301 301 300 300 301 300 300 300 301 299 296 296 296 295 294 294 292 292 292 292 292 293 294 293 293 293 293 293 294 293 293 293 293 291 294 295 291 289 292 291 287 287 290 289 287 287 286 285 285 284 283 282 282 282 282 281 281 281 281 281 280 280 279 279 278 278 278 277 276 276 275 275 275 274 274 273 273 272 272
303 303 303 303 302 302 302 301 301 301 300 300 300 300 299 300 299 297 296 297 297 294 293 293 292 291 292 292 292 292 293 292 293 293 292 293 293 292 292 293 291 291 295 297 292 290 292 292 289 290 291 289 287 286 286 285 284 284 282 282 282 282 281 281 281 281 280 280 280 279 279 278 278 278 277 276 276 275 275 275 274 274 274 273 272 272 272
303 303 303 302 302 302 301 300 300 300 300 300 300 299 297 297 296 294 295 298 297 293 292 292 292 291 291 291 291 291 291 291 291 291 292 292 292 291 293 292 289 291 296 296 291 289 291 292 292 292 291 288 287 286 286 285 284 283 283 282 282 281 281 281 280 280 280 279 279 279 278 278 278 278 277 276 275 275 274 274 274 274 274 273 272 272 272
303 302 302 301 301 301 301 301 300 300 300 300 300 296 293 295 297 295 295 296 295 292 291 292 292 291 291 291 291 291 291 291 291 291 292 292 292 291 291 290 289 291 293 291 289 289 290 293 295 293 288 286 286 286 285 285 284 283 282 282 282 281 281 280 280 280 280 279 278 278 278 278 278 278 277 276 275 275 275 275 274 274 275 274 273 273 272
303 302 301 301 301 301 301 301 301 300 299 300 301 299 297 297 296 294 293 294 293 292 292 292 291 291 292 291 291 290 290 291 291 291 290 290 290 289 290 291 292 291 289 288 289 292 294 296 297 293 287 286 287 286 285 285 284 282 282 282 282 281 281 280 280 280 279 279 278 278 278 277 277 278 278 277 276 275 276 275 274 274 275 275 275 274 273
302 302 301 301 300 301 301 301 300 300 299 299 300 301 301 300 297 295 294 294 293 291 291 291 291 291 291 291 290 291 291 291 291 290 290 290 290 291 293 294 292 289 288 289 291 292 291 291 291 289 286 286 286 285 285 284 283 282 282 282 281 281 281 280 280 280 279 279 279 278 278 278 278 278 278 278 277 276 275 275 275 274 274 275 275 274 273
302 302 301 301 301 300 301 302 300 299 299 298 299 301 301 299 298 298 296 294 292 291 291 291 290 290 291 291 291 291 290 290 290 290 289 288 290 293 293 291 288 288 290 292 292 291 289 289 288 287 287 286 285 285 285 284 283 282 282 282 281 281 280 280 280 280 279 279 279 279 278 278 278 277 277 278 277 276 275 275 274 274 273 274 274 274 274
303 301 301 302 302 299 300 301 301 299 297 295 296 298 298 295 294 294 293 292 292 291 291 291 290 290 291 291 290 290 289 289 290 289 287 288 291 292 289 287 288 291 291 292 294 295 294 290 286 286 287 286 285 285 285 283 282 282 282 281 281 281 280 280 280 279 279 279 279 279 278 278 277 277 277 277 277 277 276 275 273 273 272 273 273 273 273
303 300 300 303 302 299 298 299 299 297 296 294 294 294 294 293 292 292 292 292 292 291 291 291 291 290 290 290 289 289 289 288 288 288 286 288 291 291 288 287 291 292 291 291 296 299 295 289 286 286 286 286 285 285 284 283 282 282 281 281 281 280 280 280 280 279 279 279 279 279 278 278 277 277 277 277 277 277 275 274 274 273 272 272 273 273 273
302 301 301 302 300 298 297 298 296 294 295 295 293 293 293 292 292 292 292 291 291 291 291 291 290 290 290 289 288 288 288 288 288 288 286 286 289 292 292 291 292 291 290 292 296 295 290 287 287 287 286 285 285 285 284 283 282 282 281 281 281 280 280 280 280 279 279 279 279 279 278 278 278 277 277 277 277 276 275 274 274 273 273 272 273 273 273
301 301 301 299 297 295 295 295 294 294 294 294 293 292 292 292 292 292 292 291 291 291 291 290 290 291 289 287 287 288 288 288 288 287 287 288 291 293 292 292 294 294 291 289 289 288 287 287 287 286 285 285 285 284 284 283 282 282 281 281 280 280 280 280 279 279 279 279 279 278 278 278 277 277 276 276 276 276 275 274 273 273 273 272 272 272 273
301 300 299 298 298 296 295 295 295 294 293 293 294 293 292 292 292 292 292 291 291 291 291 291 290 289 288 287 289 290 289 287 285 287 290 293 293 291 289 291 297 299 294 288 286 287 288 287 286 286 286 285 285 284 284 283 282 281 281 281 280 280 280 280 279 279 279 279 278 278 278 277 277 276 276 276 275 276 276 275 273 273 273 273 272 272 272
300 299 298 298 298 297 296 296 297 296 294 293 294 294 293 293 293 292 292 292 291 291 291 290 289 288 289 291 292 291 289 286 285 288 290 289 287 288 292 295 296 294 292 289 288 288 288 286 286 286 286 285 285 284 284 283 282 282 281 281 280 280 280 280 279 279 279 279 278 278 278 277 277 276 276 276 276 275 275 275 275 274 274 273 273 272 272
299 299 297 297 297 297 296 296 296 295 294 294 294 293 293 293 293 292 292 291 291 290 290 290 288 289 291 291 290 288 287 287 288 290 291 288 285 288 295 296 292 289 288 289 288 288 287 286 286 286 285 285 285 284 283 283 283 282 281 281 280 280 279 279 279 279 279 279 278 278 278 277 277 276 276 276 276 275 274 275 275 275 274 274 273 273 272
Wind_Speed
15 14 14 13 13 12 10 10 8 7 8 7 7 9 13 14 9 6 8 9 9 12 10 7 5 5 3 2 3 3 2 2 3 3 3 2 1 2 2 1 1 1 1 0 1 1 1 2 1 0 2 1 1 2 6 6 4 3 1 1 2 1 2 2 5 5 6 9 4 6 5 6 7 5 5 3 2 1 4 4 2 3 4 2 2 7 7
16 15 15 16 17 16 15 14 13 13 14 13 14 18 21 22 20 16 8 3 4 8 6 2 3 2 2 3 4 3 3 4 3 2 3 3 1 2 1 0 1 0 1 1 1 1 1 1 1 1 1 1 2 3 7 6 4 3 1 1 4 3 1 3 4 7 8 8 6 4 2 3 4 3 3 3 3 2 1 1 4 2 3 6 5 8 9
18 18 18 18 17 15 13 13 12 11 11 10 11 15 16 15 17 22 19 11 10 11 9 9 6 3 3 4 3 3 3 4 5 3 3 4 3 2 1 1 1 1 1 1 2 1 2 1 2 2 0 1 2 4 6 4 4 3 1 1 3 1 1 3 4 5 7 7 7 8 7 5 1 3 4 4 5 6 3 2 2 2 6 10 6 8 13
19 17 16 13 11 9 8 8 7 6 5 5 5 7 8 6 5 11 17 20 22 19 13 11 8 4 4 4 2 2 2 2 5 4 3 4 4 2 2 2 1 3 3 3 3 2 2 2 2 2 2 3 2 4 4 4 4 3 2 2 2 2 0 2 4 3 6 6 9 9 6 6 5 3 6 4 3 5 4 1 2 5 9 10 7 11 18
16 14 13 11 10 9 8 7 6 5 6 6 6 8 9 7 2 2 5 11 16 16 11 10 7 4 3 3 1 2 2 2 3 3 2 4 3 2 3 4 2 2 4 4 3 4 3 3 2 1 1 4 2 3 3 3 4 3 3 3 2 3 2 2 4 6 8 7 11 12 6 4 5 3 5 4 2 3 4 2 5 8 8 8 11 17 21
16 15 15 13 13 12 10 10 8 7 7 6 6 8 9 6 4 4 5 3 4 6 8 10 11 7 4 3 1 2 3 2 1 2 2 3 4 2 2 5 5 1 1 3 3 6 6 4 3 2 2 3 4 4 2 3 5 5 2 3 3 4 1 2 3 6 9 9 12 10 4 2 1 2 4 5 4 5 4 4 8 8 8 12 18 23 22
20 19 19 18 17 15 14 13 12 10 10 7 7 11 13 13 10 8 8 7 5 5 3 7 12 10 5 3 2 2 3 2 1 2 3 3 5 5 3 5 6 1 1 2 2 3 3 4 4 1 2 4 3 3 1 2 6 6 2 2 3 2 2 3 2 5 10 9 8 5 3 3 2 2 4 4 4 4 4 6 9 10 13 16 20 24 23
24 24 23 22 22 20 18 17 15 13 11 9 11 13 13 12 10 12 16 14 9 7 3 4 7 6 5 4 2 1 3 1 2 1 2 2 4 6 3 6 6 1 3 2 1 1 3 4 5 2 1 4 1 0 0 1 5 7 3 1 4 4 3 1 2 5 9 5 2 3 2 4 3 2 5 7 8 8 7 7 8 11 15 18 21 24 19
26 26 26 25 25 23 22 20 18 16 13 12 16 17 16 16 17 18 19 10 8 6 4 3 5 4 4 2 1 1 2 1 1 0 1 2 1 3 2 5 4 2 2 1 2 5 3 6 9 7 4 4 3 1 1 1 4 6 3 3 4 5 4 3 4 5 9 6 8 10 5 4 4 3 6 9 11 12 10 8 8 12 17 21 23 19 12
26 26 26 25 25 24 24 22 20 17 14 14 17 19 19 20 18 14 13 7 6 5 4 4 5 2 2 1 2 0 1 1 1 1 2 1 2 2 2 3 3 3 4 5 6 9 9 10 13 11 10 10 7 5 4 1 2 2 2 2 2 3 3 3 3 4 8 9 13 14 6 4 3 3 2 7 13 16 14 10 10 14 15 16 17 13 12
26 25 24 24 24 23 23 23 21 19 16 14 16 16 13 14 14 12 12 8 5 5 4 3 4 2 2 1 1 1 2 1 2 2 1 2 2 3 4 4 3 1 4 10 15 18 15 10 7 4 5 6 5 4 4 1 0 2 2 2 1 3 3 2 1 2 6 10 14 14 8 6 5 1 3 7 13 15 18 16 13 15 14 13 13 13 17
25 24 23 22 22 21 21 22 21 21 19 15 14 14 11 10 10 8 9 7 2 4 4 2 2 2 2 2 2 2 3 3 2 2 1 2 4 4 4 4 4 3 9 17 21 19 10 4 2 4 4 3 3 4 4 5 4 2 2 2 2 3 3 2 0 1 4 6 9 12 10 5 4 1 1 8 12 13 21 22 16 17 19 16 15 17 21
23 23 22 21 20 19 19 20 20 21 19 14 13 14 11 8 7 7 12 11 2 2 5 3 2 4 3 3 3 3 3 3 1 2 2 3 4 5 4 4 5 8 14 18 17 12 4 2 3 3 3 4 5 6 7 8 7 5 3 3 3 2 1 1 1 0 3 5 6 8 9 6 4 2 2 8 13 14 19 21 19 18 15 13 15 21 26
22 21 21 20 20 18 18 18 18 19 18 13 12 14 12 8 7 7 10 10 2 0 6 6 2 3 4 3 4 4 2 2 2 3 2 3 5 5 5 7 9 11 15 15 11 6 2 2 5 4 4 5 5 4 2 4 7 8 5 3 3 3 2 2 2 1 2 5 4 6 9 6 4 3 4 8 13 14 14 17 20 15 10 14 18 20 26
21 21 21 20 19 19 18 17 17 17 17 13 11 12 11 8 7 5 6 12 10 4 4 4 1 2 4 4 4 3 3 3 2 3 3 3 4 4 7 9 9 12 14 11 6 4 3 3 4 3 4 4 3 4 3 1 4 7 6 5 6 6 4 2 2 2 1 3 5 6 8 7 1 2 8 15 20 21 17 15 14 9 15 27 25 20 28
21 21 21 20 19 19 18 17 16 16 16 14 11 10 11 9 9 7 5 12 13 5 3 4 5 5 6 6 5 4 3 3 3 4 4 3 4 5 8 9 8 11 13 8 4 5 4 3 3 1 1 1 2 3 3 2 2 3 6 8 9 8 5 5 4 3 2 3 6 5 6 5 1 2 12 25 30 27 19 13 9 9 27 40 33 28 36
21 21 20 20 19 18 17 16 15 15 16 15 11 10 11 10 9 7 5 9 13 9 5 5 5 5 6 5 4 5 4 3 2 2 2 3 4 6 9 8 6 10 13 8 3 5 5 3 2 2 2 2 1 2 3 3 4 4 3 5 7 6 5 5 5 3 4 5 5 3 3 5 3 4 17 31 33 26 15 9 9 18 38 47 40 36 42
21 20 20 19 18 17 17 16 15 15 15 14 11 11 12 10 9 8 6 10 15 10 6 7 7 6 7 6 4 4 3 3 2 1 2 2 3 7 10 7 7 10 11 6 2 4 4 2 2 2 2 3 1 1 2 2 3 4 4 3 3 3 2 3 3 4 6 6 5 5 4 5 6 15 25 33 30 19 10 8 15 28 43 49 46 43 44
20 19 19 18 17 16 15 15 15 15 15 14 12 11 12 10 10 8 5 10 18 14 8 11 12 10 11 10 8 8 6 5 4 2 1 1 5 10 7 4 6 8 6 4 3 3 3 1 1 2 1 3 2 1 1 1 0 3 4 3 3 3 2 2 2 3 5 3 5 9 5 2 14 30 34 30 20 10 9 19 31 37 41 45 48 47 45
19 18 18 18 17 16 15 14 15 16 17 17 14 10 11 11 10 10 6 11 25 26 16 14 15 14 13 13 11 10 9 8 7 4 3 0 8 10 3 1 6 7 4 4 3 1 2 1 2 1 2 3 2 1 1 1 1 2 2 1 2 2 3 4 2 2 4 5 6 6 4 8 25 32 23 16 12 14 23 33 37 38 40 43 46 47 45
18 17 18 17 17 17 16 16 17 16 18 19 15 10 11 12 13 15 10 8 21 26 19 15 16 14 13 13 13 12 10 9 8 6 3 1 6 6 3 3 3 3 0 2 2 0 1 3 2 1 1 2 1 1 0 1 2 2 1 2 1 0 1 1 3 1 2 4 3 4 11 22 30 24 15 17 23 29 35 37 37 40 42 41 42 46 48
17 17 17 17 17 17 16 16 17 17 19 20 15 11 13 15 16 17 9 5 18 27 22 18 17 15 13 13 13 12 11 10 9 8 5 3 3 4 4 3 0 1 2 2 3 1 1 2 2 1 1 0 1 1 1 2 1 3 3 3 1 2 3 2 3 2 2 6 9 16 24 29 30 28 29 34 36 36 39 40 41 44 44 41 42 46 50
17 17 17 17 16 17 16 16 17 17 18 19 15 13 15 17 16 13 5 8 24 31 23 17 16 14 14 14 12 11 11 10 9 8 7 4 3 3 3 2 1 2 3 2 2 2 3 4 2 2 2 1 1 2 2 2 0 2 1 1 3 4 2 1 2 4 8 11 16 21 25 28 33 37 37 38 38 38 41 43 44 47 47 47 47 47 50
16 16 17 17 16 16 16 15 16 16 18 18 17 16 16 17 15 11 7 12 23 24 17 14 13 12 13 12 11 10 11 11 9 8 7 5 3 2 2 2 2 3 4 3 3 4 5 4 2 3 2 0 2 3 2 1 1 1 1 1 4 4 3 3 2 4 8 9 13 20 25 29 34 36 34 36 40 43 45 47 49 51 54 54 52 50 50
15 15 16 16 16 16 15 15 15 16 17 17 16 15 14 14 12 8 6 10 17 16 12 10 11 13 12 10 9 10 11 12 10 7 6 6 5 2 0 2 2 3 3 4 5 5 5 4 3 3 3 1 1 1 1 1 3 2 1 1 3 4 4 3 3 5 7 12 21 32 35 32 32 33 36 43 48 52 53 53 53 55 57 57 56 55 52
14 15 15 16 16 16 15 15 14 15 16 15 14 12 11 12 12 10 8 10 13 13 11 8 8 13 13 10 9 10 11 12 9 6 6 7 6 3 1 1 1 3 4 5 6 6 5 5 4 3 2 1 1 1 2 3 3 3 2 1 6 7 6 6 7 8 8 11 22 36 36 31 35 42 47 50 53 55 55 55 55 57 59 58 57 55 51
14 14 15 16 16 16 15 14 13 13 13 13 12 11 11 12 11 8 6 6 6 7 7 7 8 12 14 14 11 10 12 11 8 6 7 8 6 3 1 1 2 5 7 8 7 5 5 5 4 3 3 4 5 4 3 4 4 3 1 5 10 8 7 8 8 7 6 9 21 29 23 20 32 45 50 52 53 52 51 53 55 56 56 56 54 52 50
13 14 14 15 15 15 14 13 11 10 10 11 12 11 11 12 11 6 3 3 2 4 13 16 12 9 10 13 13 12 12 11 7 6 9 9 5 3 2 2 4 6 7 7 5 5 4 4 4 4 4 6 6 4 2 3 3 1 0 6 13 12 11 12 10 8 12 19 28 30 24 25 37 47 49 49 49 46 47 51 52 52 53 54 52 50 48
12 13 13 14 14 13 12 10 9 8 6 7 9 10 11 13 12 9 9 9 5 9 20 20 10 5 5 9 14 13 11 10 8 7 9 9 5 3 4 4 5 6 6 6 6 6 6 6 6 5 3 4 4 2 2 3 2 1 1 8 16 16 16 18 17 18 23 29 33 32 30 34 42 46 45 44 43 43 46 49 50 50 52 52 51 51 49
12 12 12 12 13 12 11 9 8 6 4 3 5 7 10 12 11 10 12 11 6 7 14 13 6 4 6 7 13 14 10 10 9 7 8 8 5 4 4 4 6 6 6 7 7 6 6 6 6 5 3 4 5 4 3 2 1 1 4 13 20 20 19 20 21 22 26 31 34 34 34 37 42 44 42 42 43 45 48 49 49 51 52 51 52 53 50
11 11 12 12 12 12 11 9 9 8 5 2 1 2 4 7 8 7 8 7 4 4 8 10 8 6 5 4 10 13 11 9 9 8 7 7 5 4 4 5 5 5 6 8 8 6 5 4 4 4 3 4 5 5 4 2 1 3 8 15 20 21 21 22 23 23 25 29 33 34 36 39 41 41 41 43 45 45 45 47 49 50 50 51 52 52 48
11 11 11 12 12 12 12 12 11 9 6 4 6 7 7 8 8 7 6 5 4 4 6 7 6 3 1 1 5 13 13 9 8 9 7 6 5 4 4 5 5 6 6 7 7 5 4 4 5 4 4 4 5 5 4 4 1 6 12 19 22 22 21 23 25 25 24 27 29 30 34 37 38 37 38 42 43 42 43 46 48 47 47 50 52 53 51
10 11 11 11 12 12 12 12 10 8 6 9 11 12 10 9 7 5 5 5 4 3 4 5 3 1 1 1 2 11 15 10 9 10 8 5 5 3 2 3 4 4 4 4 3 3 3 4 5 5 5 5 6 5 4 3 3 10 17 22 23 22 22 23 23 22 24 27 28 27 30 35 38 38 37 40 41 42 44 46 47 47 48 50 51 53 54
9 10 10 10 11 11 11 11 9 6 6 9 11 11 10 8 6 6 5 4 4 5 6 6 4 1 2 1 1 8 15 13 10 11 9 6 6 5 1 1 2 3 3 3 3 4 3 3 4 5 4 3 4 4 2 3 9 15 19 22 24 24 24 24 21 21 27 32 33 32 33 37 40 40 38 39 42 44 46 49 50 50 51 51 52 54 53
9 10 10 9 10 10 10 10 8 5 6 9 11 11 10 8 8 9 8 5 4 4 5 7 5 2 3 3 1 8 16 15 11 11 10 6 6 6 3 1 1 2 2 2 2 3 3 2 3 4 1 3 3 2 2 7 14 18 21 23 25 26 27 28 28 30 33 35 37 38 39 40 42 43 42 44 48 49 50 52 52 52 52 51 51 52 50
9 10 9 8 8 8 7 6 4 4 6 10 10 9 8 7 9 10 9 8 8 7 6 6 5 3 2 1 3 10 16 14 11 11 10 6 5 5 4 2 1 2 2 2 2 2 2 2 2 1 1 2 2 2 3 10 15 18 21 23 25 25 26 28 31 34 36 37 38 40 41 44 47 48 49 51 53 52 51 51 52 51 50 48 47 47 46
10 10 9 8 6 5 5 4 3 4 6 7 6 5 5 5 5 6 7 10 12 13 11 8 5 3 3 2 5 12 14 11 10 11 9 7 6 5 3 3 2 2 3 2 2 2 1 1 2 1 0 3 4 1 7 11 15 18 21 22 24 25 26 28 31 33 37 39 40 42 44 47 49 50 51 53 53 51 49 49 49 48 47 46 47 47 48
10 10 9 7 5 4 3 2 2 4 4 3 2 2 3 4 3 4 7 10 10 12 13 10 6 5 5 3 6 11 11 8 9 9 7 7 8 5 3 4 2 2 2 1 1 1 2 1 2 1 2 5 6 3 11 14 15 18 20 21 22 24 26 28 30 31 32 34 36 39 41 41 43 47 49 49 50 49 48 47 47 47 47 48 49 49 50
10 9 8 6 5 3 2 2 2 3 2 1 2 2 3 5 4 4 7 8 6 8 11 9 5 6 7 5 5 8 9 8 7 5 4 6 6 3 2 3 3 3 2 1 1 1 1 1 1 2 2 5 3 7 15 17 18 20 20 19 21 23 24 26 28 28 28 29 30 33 33 34 37 43 45 45 47 49 48 47 48 48 49 50 50 50 50
10 8 7 5 4 4 3 2 2 1 1 2 3 2 4 7 6 4 5 5 4 5 8 7 5 6 9 7 5 6 8 8 5 3 3 3 3 2 2 2 2 2 1 1 1 1 1 0 1 2 2 4 3 11 16 17 20 21 20 19 21 23 24 25 27 28 28 29 30 31 32 33 36 40 42 42 44 47 49 49 49 50 50 50 50 51 51
9 8 6 5 4 3 3 3 3 2 1 2 3 3 4 5 5 5 5 3 1 3 6 6 5 6 9 8 6 6 8 8 5 3 3 3 3 3 2 1 2 2 1 3 3 2 2 1 2 2 4 2 7 14 16 18 21 21 19 20 22 23 24 26 28 28 28 30 31 32 34 35 37 40 41 42 42 44 47 48 48 50 52 52 51 52 53
9 8 6 4 3 3 2 3 4 3 2 2 3 3 2 2 3 4 4 2 1 3 6 6 6 7 10 10 7 6 7 7 5 3 2 2 3 3 1 0 2 1 2 3 3 3 2 0 3 3 3 3 10 15 16 19 21 21 20 21 23 24 25 28 29 29 29 30 31 33 34 36 38 40 42 43 43 44 46 47 48 49 52 52 52 53 54
9 9 6 3 3 4 3 3 4 4 3 3 3 2 3 3 2 1 2 1 1 2 5 6 7 8 8 8 8 7 6 5 4 2 1 3 4 3 2 1 1 0 1 2 3 2 1 2 4 4 2 8 14 16 18 20 21 19 19 21 23 24 26 28 28 29 30 30 31 34 35 37 39 41 43 44 45 47 48 49 48 49 50 52 53 54 54
9 9 6 2 3 4 3 2 4 4 2 2 2 1 1 3 2 1 1 2 2 2 5 7 8 8 8 8 8 5 3 3 3 2 2 3 4 2 1 1 2 2 2 2 1 0 2 4 4 2 6 12 16 17 19 20 20 19 20 22 23 24 26 27 28 30 31 32 34 36 37 39 41 43 45 47 47 48 49 50 49 49 50 51 52 54 54
8 8 5 2 3 5 3 1 3 4 1 0 1 3 3 1 2 3 2 2 3 4 6 8 9 9 9 8 6 3 2 3 3 1 2 3 2 0 1 2 2 2 2 1 0 2 3 3 3 3 10 14 16 18 20 21 19 19 21 23 24 25 27 28 29 30 32 34 36 38 39 41 43 44 46 48 49 49 49 50 49 49 50 51 52 54 54
7 6 4 1 2 4 3 0 1 2 1 3 3 3 3 2 2 2 1 3 4 5 7 9 10 10 8 6 4 2 3 3 2 1 1 2 0 2 2 2 2 3 2 1 2 3 4 4 3 7 12 15 18 20 21 20 19 18 20 23 25 26 27 28 29 30 31 33 36 38 40 42 43 45 47 49 50 50 50 50 49 49 49 51 52 53 54
5 5 4 1 0 2 2 1 1 1 2 4 4 3 2 1 1 1 3 3 4 6 8 10 10 8 6 4 3 3 3 2 1 1 1 0 1 2 2 2 0 1 1 2 4 4 4 3 6 11 14 17 19 21 21 20 18 18 20 22 24 25 26 27 29 30 31 33 36 39 40 42 44 46 48 50 50 50 50 50 50 49 49 50 50 51 52
3 3 2 1 1 0 1 1 2 2 3 4 4 3 2 2 2 3 4 4 4 6 9 10 9 6 4 3 2 2 2 3 1 1 0 1 1 2 3 2 2 2 2 3 4 4 2 4 10 13 15 18 21 22 21 20 18 18 20 22 23 25 26 27 29 30 31 33 35 38 40 42 45 47 48 50 51 51 51 50 50 50 49 49 49 50 51
3 2 1 3 3 2 2 3 3 2 3 4 5 4 4 3 4 4 5 5 5 7 9 9 6 3 2 3 2 1 1 1 1 0 2 2 1 1 0 1 2 3 3 4 5 4 5 9 13 15 18 20 22 22 21 20 18 18 19 21 22 24 25 26 28 29 31 32 34 36 38 41 44 46 48 49 50 51 51 50 49 50 50 49 48 49 51
3 1 2 3 2 2 4 4 2 1 3 5 6 6 5 5 5 5 5 5 5 7 8 6 4 2 2 2 2 1 1 1 0 1 1 1 2 1 1 2 4 4 4 4 4 6 10 12 14 17 20 22 22 22 21 20 19 18 18 20 21 22 23 25 27 29 30 31 33 35 37 40 43 45 47 47 48 50 51 51 50 50 51 50 49 49 51
1 1 2 2 1 3 5 4 1 1 2 4 5 5 5 5 6 6 5 5 5 5 5 3 2 3 3 1 1 1 1 1 1 1 2 3 2 3 2 4 6 4 4 6 8 12 14 14 16 19 23 24 23 22 21 20 19 19 19 20 21 21 22 24 27 28 30 31 32 34 37 39 42 44 46 47 48 49 51 53 54 54 53 53 51 51 51
1 1 1 0 1 4 5 3 1 1 1 1 2 3 3 4 5 6 5 4 4 4 2 1 1 2 2 1 1 1 1 1 1 1 3 4 5 5 5 5 5 7 10 13 15 16 15 15 17 21 24 25 24 22 21 21 20 20 19 20 21 21 22 24 26 28 29 31 32 34 36 38 41 43 46 48 49 49 51 53 55 56 56 55 53 53 52
Wind_Direction
107 104 101 98 95 94 97 102 106 107 104 99 102 94 74 70 59 32 59 82 96 98 75 13 22 75 90 109 84 77 108 69 19 18 26 15 21 46 63 85 76 183 211 271 224 229 216 219 351 348 229 330 3 8 16 8 352 25 43 319 352 22 72 19 293 285 284 289 337 83 106 105 90 50 33 54 69 115 203 221 328 315 283 321 301 280 290
106 104 102 99 97 95 93 95 98 98 97 93 93 90 81 72 59 47 59 137 108 94 106 99 68 85 124 84 52 46 75 56 22 7 18 14 41 58 41 100 37 3 157 115 236 288 2 249 355 40 192 298 12 20 24 24 21 34 93 328 354 339 18 38 347 336 333 329 352 18 355 45 79 71 53 72 55 359 265 66 20 303 287 336 311 275 292
101 101 102 101 99 93 87 90 95 100 99 90 87 89 84 76 60 51 58 90 106 98 116 128 125 145 110 63 16 18 56 45 31 36 37 34 55 64 4 300 4 17 84 33 329 342 20 324 346 24 271 265 27 28 19 31 44 45 115 249 346 318 203 91 66 349 325 324 323 315 324 345 44 95 50 30 37 33 26 22 351 295 310 316 289 269 297
97 96 97 97 94 86 83 87 86 91 102 91 90 96 86 80 67 48 54 72 83 85 97 109 112 137 115 71 3 27 54 20 24 36 48 35 37 56 26 324 322 29 41 22 329 315 22 24 1 21 316 284 359 32 25 49 58 44 38 4 25 88 193 155 143 232 265 260 273 292 335 333 303 3 23 2 19 42 53 75 294 305 302 292 277 292 305
91 89 88 87 87 82 80 80 76 89 98 92 97 100 88 77 63 39 53 62 67 67 68 78 92 131 128 97 13 16 353 324 8 25 34 24 19 58 50 33 35 21 20 27 324 309 357 24 358 9 283 273 318 27 49 59 33 27 36 7 50 84 336 263 181 230 250 255 275 294 336 323 288 354 9 344 4 44 58 34 311 305 296 288 301 310 311
87 86 83 83 82 77 74 73 75 88 89 91 105 91 79 89 92 83 95 85 51 50 49 66 79 79 85 113 124 30 16 0 16 340 336 17 24 30 34 29 39 33 355 37 347 329 354 1 336 344 318 314 350 14 56 66 23 16 33 16 73 111 265 247 188 251 267 271 279 289 313 273 190 44 352 346 10 16 16 335 305 302 292 291 304 310 310
85 83 81 79 75 72 70 69 68 74 78 84 100 93 93 108 108 82 86 96 98 103 87 75 76 61 49 78 73 69 69 45 253 272 326 0 15 31 32 351 3 17 182 79 41 348 355 332 316 327 355 343 357 2 4 58 23 22 37 13 52 102 251 236 189 281 285 277 276 281 247 201 138 46 344 347 0 355 344 313 305 302 289 290 303 308 308
83 81 80 77 75 72 68 66 63 66 76 85 93 98 105 117 119 108 102 91 71 74 67 62 75 48 28 62 54 141 128 62 292 263 37 9 352 22 26 326 337 71 139 106 68 263 206 238 266 233 24 341 296 151 281 261 352 13 39 342 16 28 316 294 80 326 300 286 321 332 253 185 141 30 353 352 348 349 346 325 317 311 302 304 311 311 310
82 81 80 77 76 74 70 69 66 63 75 89 92 98 106 114 121 119 109 83 21 32 36 37 80 39 8 72 164 249 155 151 292 6 58 74 8 7 359 322 335 53 81 90 272 282 249 242 260 259 267 274 240 207 84 129 350 2 22 349 6 29 343 339 49 352 307 322 360 342 335 119 108 6 354 359 353 345 339 336 334 325 318 319 319 315 313
80 79 78 76 75 74 71 70 68 65 69 77 88 103 112 115 121 120 109 86 7 20 26 21 68 73 339 122 167 221 138 190 124 69 347 35 37 345 339 345 352 8 3 352 324 318 312 290 282 276 264 256 248 263 279 311 340 334 55 23 10 44 359 334 17 338 307 334 344 328 331 62 25 314 9 11 354 336 328 337 338 326 323 321 318 316 319
78 76 76 75 75 74 72 70 68 67 64 61 79 101 112 117 124 120 106 93 11 11 37 30 65 127 214 147 138 136 113 141 134 107 1 349 22 353 341 4 15 339 327 334 327 323 322 312 295 268 255 256 248 254 264 285 186 185 112 50 43 53 26 332 12 311 300 329 338 330 338 7 342 275 114 15 354 337 326 328 332 327 325 320 314 317 324
76 74 72 71 71 72 72 72 68 65 63 55 67 89 99 109 123 125 109 105 3 16 64 68 85 129 172 142 116 126 110 107 127 109 355 337 7 359 344 18 37 339 324 329 326 323 329 359 72 111 96 76 97 98 77 63 65 106 125 119 105 51 15 330 40 211 278 321 353 347 344 350 336 230 187 340 347 340 324 320 328 332 326 323 325 325 322
75 73 71 68 67 67 67 69 67 64 62 55 60 77 88 96 110 120 110 106 90 1 81 102 106 102 126 127 97 98 107 103 78 13 344 332 354 2 3 8 358 335 332 331 328 325 327 31 49 83 74 54 63 71 65 53 41 38 62 99 102 74 38 349 348 199 313 347 12 341 312 311 339 314 288 331 345 347 331 321 327 334 328 329 331 321 316
72 71 69 65 63 62 60 63 64 63 61 53 55 71 80 86 97 113 111 105 104 3 97 104 103 100 109 97 85 91 68 36 14 352 347 332 342 5 13 352 342 345 344 338 339 354 19 33 25 9 348 10 19 7 26 54 42 30 29 72 97 96 93 21 349 49 14 328 314 290 290 308 13 13 349 351 345 344 338 321 318 326 334 333 327 316 316
71 69 67 63 60 59 58 59 60 62 62 52 48 66 77 81 83 83 110 121 125 113 75 87 118 122 106 79 70 66 15 16 18 340 330 340 1 17 5 353 353 357 354 351 6 41 63 65 49 14 347 8 353 305 308 44 42 37 51 83 81 61 63 71 14 25 83 306 311 319 318 324 1 303 329 347 344 338 334 314 303 320 336 332 328 321 321
71 68 66 62 59 57 56 57 58 61 62 52 42 59 70 71 75 75 103 123 120 99 42 88 97 93 92 81 67 53 27 18 5 342 338 358 25 19 359 358 6 4 3 11 40 56 60 82 109 101 318 275 243 289 318 343 344 32 68 78 68 47 46 86 69 11 11 352 330 320 308 306 217 250 331 343 342 336 327 304 291 330 334 332 332 326 321
70 67 63 60 59 58 55 56 59 60 60 52 39 46 60 65 70 70 83 109 105 91 83 101 97 81 79 70 50 46 35 18 26 29 340 325 348 357 356 3 13 8 11 20 35 53 62 71 77 65 272 233 179 300 313 343 332 327 9 39 47 37 12 29 42 17 359 345 316 278 258 280 284 329 343 343 337 332 329 313 313 333 331 329 329 323 319
69 65 62 59 58 57 55 57 60 60 59 53 39 42 56 63 67 64 73 102 101 90 83 92 90 80 76 67 59 63 44 12 19 351 281 302 347 345 348 4 17 7 12 29 64 69 67 57 70 85 255 261 51 339 312 349 334 313 321 346 18 37 6 12 29 352 338 331 309 298 264 252 306 335 344 344 337 333 340 324 318 326 325 322 322 319 318
68 64 62 61 58 58 58 61 64 63 60 52 39 43 55 58 63 63 62 101 104 101 96 96 92 87 88 85 82 80 64 46 49 41 31 29 342 333 338 21 20 2 9 48 86 95 81 50 197 135 188 288 322 62 43 31 311 323 338 355 21 24 342 336 351 327 329 330 313 310 280 258 343 339 340 346 348 338 322 314 314 318 318 317 318 318 318
67 64 62 61 59 59 58 59 63 61 58 49 33 36 59 62 65 66 61 103 110 106 98 96 95 92 91 87 81 80 73 61 61 72 116 149 330 339 0 30 350 352 13 48 61 113 122 156 254 172 163 260 270 121 46 343 73 12 349 27 50 4 329 323 320 310 316 312 317 318 289 330 342 339 339 351 347 313 307 310 312 315 317 317 318 318 317
67 64 63 60 59 58 55 56 59 56 55 50 26 20 63 69 67 73 71 103 113 107 100 98 97 91 86 82 76 75 71 63 60 59 75 39 351 14 124 205 319 354 74 100 99 185 186 167 200 224 183 249 295 108 351 8 45 12 27 114 136 146 116 300 280 295 353 329 325 300 284 305 325 331 322 317 314 309 312 314 314 317 320 320 319 317 317
67 65 64 60 57 56 52 53 56 53 55 52 27 23 70 76 72 82 87 100 106 105 104 103 96 88 85 83 75 71 65 56 52 48 50 65 57 73 130 180 319 130 176 139 121 183 204 160 165 103 118 287 6 37 62 81 40 319 15 77 157 196 156 214 258 233 227 233 247 270 281 295 313 319 313 311 313 317 321 320 317 318 320 321 321 319 319
67 65 64 60 55 54 51 51 53 53 56 54 38 41 71 79 78 83 88 100 103 103 101 97 93 85 81 81 75 69 59 45 41 42 45 68 104 115 137 152 118 174 182 163 172 189 159 152 154 126 128 167 82 68 38 47 9 282 29 75 263 246 212 255 278 276 273 255 254 274 291 306 315 316 314 314 317 322 325 322 320 320 322 324 325 324 323
65 63 62 59 54 51 49 49 51 52 55 54 46 47 65 80 85 80 75 103 112 108 95 85 84 78 77 78 73 61 46 35 38 47 47 51 72 118 188 200 192 196 200 200 196 165 138 135 131 113 113 178 130 109 44 24 162 173 80 329 288 268 258 270 284 313 317 300 288 298 309 314 313 313 315 319 322 326 329 328 325 325 325 327 328 328 327
62 60 59 56 53 50 48 47 47 48 51 51 47 48 60 76 83 79 82 114 124 119 101 84 75 73 75 75 67 54 38 31 36 48 49 39 33 31 248 212 198 208 213 192 177 160 136 120 116 116 114 131 159 131 70 145 168 168 122 23 310 304 302 299 301 311 300 287 298 311 316 316 318 321 324 327 329 331 331 330 328 327 328 330 331 331 330
58 57 55 53 50 46 44 45 44 44 49 50 48 50 60 72 79 85 96 110 114 109 105 99 81 74 71 65 59 47 30 28 38 50 42 23 9 10 29 184 184 184 170 150 150 150 124 101 99 110 109 112 134 136 138 142 143 139 131 358 327 322 319 312 308 304 282 279 309 323 325 326 329 330 328 329 330 330 329 329 329 329 329 330 331 330 329
54 53 51 49 47 42 40 40 39 41 46 48 50 55 60 68 78 88 98 100 91 92 110 130 118 91 72 58 54 43 26 29 43 43 25 13 7 18 47 127 147 153 147 135 132 132 107 83 85 98 112 120 106 92 119 137 118 116 105 358 354 345 328 322 322 320 311 312 324 328 326 319 321 324 325 326 328 328 328 328 328 328 329 329 328 327 327
51 50 48 47 45 40 37 35 33 37 44 49 56 63 67 71 76 75 65 52 36 129 134 135 134 114 75 49 44 41 28 26 39 38 21 14 17 39 61 101 133 147 149 138 123 106 83 78 102 108 117 130 115 76 92 118 77 61 278 4 2 351 334 330 325 310 305 309 315 319 314 304 309 317 321 323 325 326 326 325 326 326 326 327 327 326 326
49 48 48 47 46 42 38 35 32 35 47 60 66 68 69 70 68 65 70 71 77 124 129 127 123 116 91 49 39 37 28 24 31 32 21 19 31 63 69 97 127 136 141 135 115 93 85 97 111 104 108 146 147 103 80 93 50 7 329 351 348 339 327 321 311 301 302 307 313 316 313 306 309 316 320 321 323 325 325 325 325 326 326 327 327 326 327
45 45 44 44 46 45 42 41 39 37 49 81 73 61 63 67 65 65 77 83 91 121 126 125 116 117 120 67 36 30 26 25 27 25 22 26 47 77 76 101 124 122 121 124 113 98 102 109 104 96 106 137 140 127 108 109 150 255 340 342 338 331 324 319 313 305 304 308 314 316 312 310 314 319 322 323 326 328 327 325 326 327 327 329 329 329 330
37 38 36 37 41 42 43 49 52 46 42 51 50 52 73 80 74 71 77 82 90 110 113 113 112 119 133 92 38 28 25 26 25 23 22 26 45 79 83 91 111 115 113 114 109 103 108 112 105 111 120 113 116 126 122 110 184 298 330 337 334 328 323 319 317 313 310 312 316 317 316 318 322 324 324 325 327 328 326 325 327 329 329 330 331 331 331
33 32 30 31 34 35 38 46 47 41 42 69 89 97 103 98 85 77 75 72 80 105 105 104 109 110 136 127 39 22 20 23 21 17 20 24 35 67 91 88 98 113 111 105 102 92 86 99 109 115 115 105 105 111 105 96 64 309 325 333 331 328 325 322 323 324 322 320 320 317 315 318 322 322 320 321 325 327 327 327 329 330 330 331 333 335 335
28 25 25 30 34 37 44 49 49 49 67 90 97 96 96 97 89 78 73 66 67 84 84 88 111 103 6 136 63 14 12 13 11 12 18 23 23 35 103 96 87 101 96 84 93 100 98 115 116 103 100 109 110 106 99 78 340 321 326 330 330 328 326 324 324 326 325 323 323 317 312 314 319 321 321 324 327 330 330 331 331 332 333 334 336 337 337
20 19 20 25 30 37 47 53 56 61 76 92 99 95 90 92 82 67 65 56 50 66 63 61 89 123 350 30 117 12 5 4 5 7 8 10 15 17 36 133 64 72 67 59 83 100 95 112 125 114 102 82 80 94 114 328 329 327 327 329 332 333 332 330 330 330 328 329 330 328 324 323 325 327 328 330 332 334 335 336 336 336 336 337 337 337 336
12 13 15 20 26 34 44 51 56 64 81 95 100 94 88 87 68 54 51 40 43 74 62 45 58 73 0 0 1 355 356 358 2 1 354 350 3 12 16 50 70 57 52 64 102 93 75 93 135 143 111 26 50 120 257 316 327 329 329 332 336 339 338 336 335 334 334 335 335 334 334 333 333 333 334 335 336 338 339 339 339 339 337 336 337 336 334
7 7 8 13 20 29 43 54 62 81 94 99 100 95 89 79 60 53 50 45 54 75 75 54 61 68 27 333 296 334 347 352 354 354 351 347 348 358 15 52 74 27 24 58 83 66 72 142 158 166 6 45 125 184 320 333 331 330 332 335 340 343 340 337 335 334 335 337 338 338 339 340 340 339 339 338 339 339 338 338 339 338 335 334 334 333 331
4 3 3 6 11 22 42 58 76 103 105 104 105 97 76 54 47 50 46 46 56 64 66 73 82 42 13 299 302 331 341 343 345 353 0 358 345 344 12 43 39 7 16 34 52 45 54 155 145 109 146 146 144 79 351 343 335 333 336 339 343 344 342 340 339 337 336 338 341 343 343 343 342 341 338 336 336 337 336 336 336 335 333 332 332 332 332
2 0 358 1 2 8 31 56 93 123 120 104 80 61 32 18 28 41 33 38 51 51 49 64 81 34 8 328 322 342 346 340 343 355 4 359 350 349 29 42 33 22 10 327 234 59 26 39 80 73 198 171 144 31 349 342 340 342 343 343 344 345 343 343 342 339 335 333 335 337 338 336 334 333 332 332 332 333 334 334 335 335 334 333 334 335 335
359 355 354 360 8 15 37 68 105 127 116 47 16 8 7 14 29 29 19 26 39 36 35 49 62 28 9 346 335 351 352 343 343 353 359 360 356 353 18 24 18 17 13 298 187 97 6 327 27 23 242 200 185 347 343 341 344 346 345 345 346 345 344 344 343 340 334 329 328 330 331 328 326 327 328 329 330 332 334 337 338 337 336 335 336 337 337
355 353 353 1 13 29 48 66 83 99 46 9 14 33 33 33 37 27 14 24 37 31 27 29 23 12 7 353 334 341 347 346 344 330 328 343 345 332 339 357 6 11 358 253 263 32 79 201 1 352 220 209 310 341 342 341 343 344 345 346 347 347 345 343 342 339 336 333 333 336 337 335 334 333 332 331 330 332 335 338 339 339 338 337 338 339 338
354 357 0 6 21 39 55 57 44 32 18 18 27 36 35 31 28 26 32 41 18 353 5 10 6 1 356 345 325 315 329 339 334 300 296 317 333 333 324 312 351 13 224 242 305 12 92 107 338 278 202 211 340 340 339 340 341 342 344 346 348 348 346 343 343 343 342 341 342 344 345 345 345 344 341 337 334 334 336 339 341 341 341 340 340 340 341
354 358 2 13 26 26 30 32 21 11 18 41 39 29 18 19 20 25 34 48 317 340 358 3 355 344 338 335 324 306 311 328 330 305 293 321 330 333 335 333 2 22 214 259 328 24 80 11 293 247 218 329 342 339 339 340 339 339 341 346 349 350 347 345 346 348 349 348 346 347 347 347 349 350 347 343 339 339 341 342 343 344 344 343 341 342 344
352 356 357 0 9 4 0 7 12 16 39 55 43 14 0 10 20 19 8 346 306 345 352 348 345 340 333 331 327 312 301 312 319 303 293 321 326 346 51 44 354 281 270 329 16 66 158 241 231 219 288 339 341 340 339 337 336 336 340 346 350 350 348 347 347 349 352 352 350 349 350 350 351 354 354 351 347 345 346 348 347 346 346 345 344 345 346
347 351 349 323 334 352 345 341 9 26 50 51 53 97 11 351 328 237 299 327 327 337 337 337 343 343 332 328 330 320 290 304 321 305 303 326 338 28 87 277 277 294 327 347 50 138 258 242 210 230 333 339 340 339 337 335 336 336 339 345 350 350 348 348 349 351 353 355 354 354 355 355 355 357 358 358 354 349 347 349 350 348 348 348 346 346 348
345 352 354 331 349 2 356 320 13 36 59 238 171 158 168 239 243 211 228 299 320 328 332 335 339 339 331 329 329 315 295 318 322 300 322 345 357 80 218 267 311 12 14 348 283 306 285 240 216 315 333 336 338 337 335 334 335 336 338 343 348 349 348 349 351 352 354 355 355 356 357 357 356 357 358 359 358 353 349 349 349 348 348 348 347 347 348
348 358 13 36 1 10 22 37 8 36 154 196 189 164 169 191 201 204 255 303 312 319 326 332 335 335 335 335 328 305 314 324 307 291 6 17 294 243 278 304 359 33 37 336 287 279 246 225 265 324 333 335 336 335 333 332 334 336 339 342 345 346 347 348 350 352 355 355 355 356 358 358 357 357 358 358 358 355 352 351 350 349 348 348 348 347 348
347 0 17 39 319 13 41 100 160 141 162 175 171 153 151 182 222 292 312 313 312 317 326 331 331 330 335 343 317 289 314 345 323 300 1 78 228 285 347 5 271 200 182 232 257 252 233 254 314 330 335 337 335 332 331 332 333 335 338 340 341 343 345 347 348 351 354 355 355 356 358 359 359 358 358 357 356 355 353 352 352 352 351 351 350 350 351
348 352 5 102 177 214 50 138 163 159 154 160 167 171 188 233 282 307 308 309 316 325 330 332 329 322 328 343 322 289 324 0 338 270 332 28 303 331 5 355 288 259 208 206 222 227 243 316 328 333 338 338 334 330 329 331 331 332 335 338 339 341 343 345 347 349 352 354 356 357 358 359 359 359 357 355 355 356 355 354 353 354 354 353 353 354 354
359 11 85 120 122 126 138 140 143 161 176 181 189 202 223 250 278 295 301 306 321 332 335 336 334 327 323 340 340 310 319 344 321 333 9 4 293 209 133 312 290 280 247 216 215 242 307 325 331 335 337 335 332 329 328 327 327 329 331 333 336 339 341 342 343 346 350 353 356 358 359 360 360 359 358 357 356 357 357 356 354 354 355 355 355 355 356
354 16 121 121 102 125 150 146 138 227 223 214 214 219 230 250 269 287 297 302 319 335 341 342 345 354 351 356 11 16 309 275 161 42 348 274 202 169 208 245 238 236 233 232 254 302 323 329 333 335 335 333 331 328 326 324 323 324 327 329 332 336 338 340 340 343 348 352 355 358 360 1 1 360 359 358 357 357 359 359 357 356 357 359 359 358 357
333 73 126 124 126 156 159 157 167 234 218 211 211 216 230 255 273 286 292 296 318 342 351 347 359 19 25 23 18 335 292 300 59 64 254 233 181 137 179 228 228 235 271 296 311 321 326 330 333 334 334 333 330 326 324 322 321 320 322 325 329 332 335 337 339 340 345 350 354 356 358 1 1 1 1 1 359 358 360 3 3 2 1 2 1 0 359
273 195 151 169 193 174 168 175 216 222 182 179 190 203 232 266 279 281 280 286 311 332 325 297 29 47 49 271 273 303 310 327 356 296 253 228 194 186 211 248 277 297 304 308 315 320 322 326 333 336 334 331 328 325 322 319 318 318 319 322 325 329 333 336 337 340 343 348 352 354 356 359 1 1 1 2 2 359 358 1 4 5 5 3 2 1 360